sat.trackr.live / text

‹ back to catalog

WEIHAI-1 01

NORAD 58919 · 2024-024C

PAYLOAD ACTIVE UNKNOWN

§ Identity

Operator
Country
PRC
Launch date
2024-02-03
Launch site
SCSLA
Launch vehicle
Mass (kg)
RCS (m²)

External: N2YO · Heavens-Above · Gunter

§ Orbital elements

Epoch: 2026-07-14T04:52:04.653696Z

Period
87.78 min
Inclination
97.2891°
Eccentricity
0.0018689
Mean motion
16.40529007 rev/d
Perigee alt
152.2 km
Apogee alt
176.6 km
Semi-major
6,542.5 km
B*
4.8370e-4
RAAN
287.7009°
Arg perigee
271.8854°
Mean anomaly
88.0306°
Rev number
13,722

§ Raw data

WEIHAI-1 011 58919U 24024C   26195.20283164  .09371055  24877-5  48370-3 0  99912 58919  97.2891 287.7009 0018689 271.8854  88.0306 16.40529007137224

JSON: /api/v1/satellites/58919 · /tle

For live sub-satellite position, see the globe view (requires WebGL).

§ Visibility from observer

Set your observer location to see the next 7 days of passes ≥ 10°. The values pass through the URL so the page stays shareable.

No JS? Fill the form by hand. The geolocation button needs JavaScript.